Brightest
NORAD ID: 20625
Int'l Code: 1990-046B
Perigee: 841.3 km
Apogee: 861.1 km
Inclination: 71.0 °
Period: 101.8 minutes
Semi major axis: 7222 km
Launch date: May 22, 1990
Source: Commonwealth of Independent States (former USSR) (CIS)
Note: This is a ROCKET BODY
Two Line Element Set (TLE):
1 20625U 90046B 13169.17737769 -.00000303 00000-0 -13323-3 0 4652
2 20625 071.0001 333.1295 0013711 174.2558 227.1544 14.14479513191372
Source:
NASA's NSSDC Master Catalog entry for SL-16 R/B